Powrót do katalogu

CZ-6A DEB

AktywnySSO
NORAD 54573·DEBRIS·🇨🇳 China

Wystrzelony Nov 11, 2022 z Taiyuan Satellite Launch Center

Loading…

Następne Przeloty (najbliższe 24 godziny)

TLE

ŚwieżeSource: Space-Track

Epoka: Sep 14, 2026, 03:19 UTC

1 54573U 22151LZ  26257.13850428  .00002529  00000-0  57647-3 0  9998
2 54573  98.6025 313.5834 0092604  33.3338 327.3642 14.54152371201954

Śledź CZ-6A DEB w czasie rzeczywistym z AllMySat

Download on the App Store